This is the latest recevied weather packets stored in our database for station/object KD5VOO. If no packets are shown the sender has not sent any weather packets the latest 10 day(s).
| Time | Temp. | Humidity | Pressure | Rain* | Wind** | Luminosity | Snow |
|---|---|---|---|---|---|---|---|
| 1777851810 | 25.56° C | 28% | 1015.6 hPa | 0 mm | - | 23 W/m² | - |
| 1777851508 | 26.11° C | 29% | 1015.6 hPa | 0 mm | - | 25 W/m² | - |
| 1777851203 | 26.11° C | 27% | 1015.6 hPa | 0 mm | - | 34 W/m² | - |
| 1777850900 | 26.67° C | 26% | 1015.6 hPa | 0 mm | - | 124 W/m² | - |
| 1777850598 | 26.67° C | 25% | 1015.6 hPa | 0 mm | - | 130 W/m² | - |
| 1777850295 | 26.67° C | 24% | 1015.6 hPa | 0 mm | - | 137 W/m² | - |
| 1777849992 | 26.67° C | 24% | 1015.6 hPa | 0 mm | - | 142 W/m² | - |
| 1777849688 | 26.67° C | 24% | 1015.6 hPa | 0 mm | - | 148 W/m² | - |
| 1777849385 | 26.67° C | 23% | 1015.3 hPa | 0 mm | - | 150 W/m² | - |
| 1777849083 | 26.67° C | 23% | 1015.6 hPa | 0 mm | - | 151 W/m² | - |
| 1777848778 | 26.67° C | 23% | 1015.6 hPa | 0 mm | - | 163 W/m² | - |
| 1777848475 | 26.67° C | 24% | 1015.9 hPa | 0 mm | - | 168 W/m² | - |
| 1777848172 | 26.67° C | 24% | 1015.9 hPa | 0 mm | - | 177 W/m² | - |
| 1777847870 | 26.67° C | 23% | 1015.6 hPa | 0 mm | - | 184 W/m² | - |
| 1777847568 | 26.67° C | 23% | 1015.6 hPa | 0 mm | - | 187 W/m² | - |
| 1777847263 | 26.67° C | 24% | 1015.6 hPa | 0 mm | - | 190 W/m² | - |
| 1777846961 | 26.67° C | 23% | 1015.9 hPa | 0 mm | - | 194 W/m² | - |
| 1777846660 | 26.67° C | 24% | 1015.9 hPa | 0 mm | - | 199 W/m² | - |
| 1777846357 | 26.67° C | 24% | 1015.9 hPa | 0 mm | - | 204 W/m² | - |
| 1777846053 | 26.67° C | 22% | 1015.9 hPa | 0 mm | - | 205 W/m² | - |
| 1777845750 | 26.67° C | 23% | 1015.9 hPa | 0 mm | - | 205 W/m² | - |
| 1777845447 | 26.67° C | 22% | 1015.9 hPa | 0 mm | - | 205 W/m² | - |
| 1777845144 | 26.11° C | 24% | 1015.9 hPa | 0 mm | - | 208 W/m² | - |
| 1777844843 | 26.11° C | 23% | 1016.3 hPa | 0 mm | - | 212 W/m² | - |
| 1777844539 | 26.11° C | 24% | 1016.3 hPa | 0 mm | - | 213 W/m² | - |
* Rain latest hour (hover to see other rain measurements)
** Current wind speed in m/s (hover to see current wind gust speed)